Time,TemperatureF,DewpointF,PressureIn,WindDirection,WindDirectionDegrees,WindSpeedMPH,WindSpeedGustMPH,Humidity,HourlyPrecipIn,Conditions,Clouds,dailyrainin,SolarRadiationWatts/m^2,SoftwareType,DateUTC
2013-01-16 00:00:00,7.0,2.0,-100.00,South,186,1.0,4.0,79,-99.99,,,0.00,0.000000,,2013-01-16 07:00:00,
2013-01-16 00:52:00,7.0,2.0,-100.00,South,186,1.0,4.0,79,-99.99,,,0.00,0.000000,,2013-01-16 07:52:00,
2013-01-16 01:00:00,8.0,3.0,-100.00,South,185,1.0,3.0,80,-99.99,,,0.00,0.000000,,2013-01-16 08:00:00,
2013-01-16 01:53:00,8.0,3.0,-100.00,South,185,1.0,3.0,80,-99.99,,,0.00,0.000000,,2013-01-16 08:53:00,
2013-01-16 02:00:00,6.0,2.0,-100.00,SSE,148,0.0,2.0,84,-99.99,,,0.00,0.000000,,2013-01-16 09:00:00,
2013-01-16 02:53:00,6.0,2.0,-100.00,SSE,148,0.0,2.0,84,-99.99,,,0.00,0.000000,,2013-01-16 09:53:00,
2013-01-16 03:00:00,9.0,6.0,-100.00,SSE,166,0.0,2.0,87,-99.99,,,0.00,0.000000,,2013-01-16 10:00:00,
2013-01-16 03:53:00,9.0,6.0,-100.00,SSE,166,0.0,2.0,87,-99.99,,,0.00,0.000000,,2013-01-16 10:53:00,
2013-01-16 04:00:00,8.0,5.0,-100.00,SE,128,0.0,1.0,87,-99.99,,,0.00,0.000000,,2013-01-16 11:00:00,
2013-01-16 04:53:00,8.0,5.0,-100.00,SE,128,0.0,1.0,87,-99.99,,,0.00,0.000000,,2013-01-16 11:53:00,
2013-01-16 05:00:00,9.0,7.0,-100.00,SE,130,0.0,2.0,89,-99.99,,,0.00,0.000000,,2013-01-16 12:00:00,
2013-01-16 05:53:00,9.0,7.0,-100.00,SE,130,0.0,2.0,89,-99.99,,,0.00,0.000000,,2013-01-16 12:53:00,
2013-01-16 06:00:00,9.0,7.0,-100.00,SE,146,0.0,2.0,90,-99.99,,,0.00,0.000000,,2013-01-16 13:00:00,
2013-01-16 06:53:00,9.0,7.0,-100.00,SE,146,0.0,2.0,90,-99.99,,,0.00,0.000000,,2013-01-16 13:53:00,
2013-01-16 07:00:00,9.0,7.0,-100.00,SE,126,0.0,1.0,92,-99.99,,,0.00,0.000000,,2013-01-16 14:00:00,
2013-01-16 08:00:00,9.0,-99.9,-100.00,North,-999,-999.0,-999.0,-999,-99.99,,,0.00,,,2013-01-16 15:00:00,
2013-01-16 08:54:00,9.0,-99.9,-100.00,North,-999,-999.0,-999.0,-999,-99.99,,,0.00,,,2013-01-16 15:54:00,
2013-01-16 09:00:00,17.0,14.0,-100.00,SE,137,0.0,3.0,90,-99.99,,,0.00,5.500000,,2013-01-16 16:00:00,
2013-01-16 09:53:00,17.0,14.0,-100.00,SE,137,0.0,3.0,90,-99.99,,,0.00,5.500000,,2013-01-16 16:53:00,
2013-01-16 10:00:00,24.0,20.0,-100.00,SSE,150,1.0,3.0,82,-99.99,,,0.11,82.099998,,2013-01-16 17:00:00,
2013-01-16 10:53:00,24.0,20.0,-100.00,SSE,150,1.0,3.0,82,-99.99,,,0.11,82.099998,,2013-01-16 17:53:00,
2013-01-16 11:00:00,33.0,24.0,-100.00,SSE,156,1.0,3.0,67,-99.99,,,0.00,223.399994,,2013-01-16 18:00:00,
2013-01-16 11:53:00,33.0,24.0,-100.00,SSE,156,1.0,3.0,67,-99.99,,,0.00,223.399994,,2013-01-16 18:53:00,
2013-01-16 12:00:00,43.0,23.0,-100.00,WSW,253,0.0,2.0,45,-99.99,,,0.00,554.299988,,2013-01-16 19:00:00,
2013-01-16 12:53:00,43.0,23.0,-100.00,WSW,253,0.0,2.0,45,-99.99,,,0.00,554.299988,,2013-01-16 19:53:00,
2013-01-16 13:00:00,44.0,20.0,-100.00,WNW,289,1.0,4.0,38,-99.99,,,0.00,605.000000,,2013-01-16 20:00:00,
2013-01-16 13:53:00,44.0,20.0,-100.00,WNW,289,1.0,4.0,38,-99.99,,,0.00,605.000000,,2013-01-16 20:53:00,
2013-01-16 14:00:00,43.0,17.0,-100.00,WNW,290,1.0,3.0,35,-99.99,,,-99.99,526.299988,,2013-01-16 21:00:00,
2013-01-16 14:53:00,43.0,17.0,-100.00,WNW,290,1.0,3.0,35,-99.99,,,-99.99,526.299988,,2013-01-16 21:53:00,
2013-01-16 15:00:00,44.0,19.0,-100.00,WNW,298,1.0,4.0,36,-99.99,,,0.00,436.799988,,2013-01-16 22:00:00,
2013-01-16 15:53:00,44.0,19.0,-100.00,WNW,298,1.0,4.0,36,-99.99,,,0.00,436.799988,,2013-01-16 22:53:00,
2013-01-16 16:00:00,33.0,15.0,-100.00,South,184,1.0,2.0,47,-99.99,,,0.00,42.400002,,2013-01-16 23:00:00,
2013-01-16 16:53:00,33.0,15.0,-100.00,South,184,1.0,2.0,47,-99.99,,,0.00,42.400002,,2013-01-16 23:53:00,
2013-01-16 17:00:00,31.0,17.0,-100.00,South,172,1.0,3.0,57,-99.99,,,0.00,7.000000,,2013-01-17 00:00:00,
2013-01-16 17:52:00,31.0,17.0,-100.00,South,172,1.0,3.0,57,-99.99,,,0.00,7.000000,,2013-01-17 00:52:00,
2013-01-16 18:00:00,27.0,18.0,-100.00,SE,138,0.0,2.0,66,-99.99,,,0.00,0.600000,,2013-01-17 01:00:00,
2013-01-16 18:52:00,27.0,18.0,-100.00,SE,138,0.0,2.0,66,-99.99,,,0.00,0.600000,,2013-01-17 01:52:00,
2013-01-16 20:00:00,25.0,18.0,-100.00,ESE,118,0.0,3.0,73,-99.99,,,0.01,0.000000,,2013-01-17 03:00:00,
2013-01-16 20:53:00,25.0,18.0,-100.00,ESE,118,0.0,3.0,73,-99.99,,,0.01,0.000000,,2013-01-17 03:53:00,
2013-01-16 21:00:00,24.0,18.0,-100.00,East,91,1.0,3.0,77,-99.99,,,0.00,0.000000,,2013-01-17 04:00:00,
2013-01-16 21:52:00,24.0,18.0,-100.00,East,91,1.0,3.0,77,-99.99,,,0.00,0.000000,,2013-01-17 04:52:00,